Regional Weather Roundup
Issued by NWS

Home | Current Version | Previous Version | Text Only | Print | Product List | Glossary Off
Versions: 1 2 3 4 5 6 7 8 9 10 11 12 13 14 15 16 17 18 19 20 21 22 23 24 25 26 27

000
ASUS45 KBOU 191607
RWRCO

WEATHER ROUNDUP FOR COLORADO
NATIONAL WEATHER SERVICE DENVER/BOULDER CO
900 AM MST SUN FEB 19 2017

NOTE: "FAIR" INDICATES FEW OR NO CLOUDS BELOW 12000 FEET WITH NO
SIGNIFICANT WEATHER AND/OR OBSTRUCTIONS TO VISIBILITY.

COZ001>005-013-030-031-191700-
...NORTHWEST COLORADO...

CITY           SKY/WX    TMP DP  RH WIND       PRES   REMARKS
CRAIG          FAIR      35  29  78 S3        29.75S
HAYDEN         FAIR      32  25  74 E13       29.74F WCI  22
MEEKER         CLOUDY    32  30  92 CALM      29.73F
MOUNT WERNER   NOT AVBL
STEAMBOAT SPGS NOT AVBL
WALDEN         NOT AVBL
$$

COZ006>008-011-191700-
...WEST CENTRAL VALLEYS...

CITY           SKY/WX    TMP DP  RH WIND       PRES   REMARKS
GRAND JUNCTION CLOUDY    39  36  89 E5        29.73S
MONTROSE       PTSUNNY   39  33  79 CALM      29.76S
EAGLE          PTSUNNY   28  28 100 CALM      29.81F
RIFLE          CLOUDY    34  32  92 CALM      29.74F
DELTA          PTSUNNY   35  33  91 W3        29.74F
NUCLA          CLOUDY    41  34  75 N5        29.80S
$$

COZ017>023-064>068-191700-
...SOUTHWEST COLORADO...

CITY           SKY/WX    TMP DP  RH WIND       PRES   REMARKS
DURANGO        LGT SNOW  32  32 100 E6        29.82S FOG     WCI  26
CORTEZ         RAIN      37  36  96 SW13      29.82R FOG
PAGOSA SPRINGS LGT SNOW  34  34 100 SE5       29.85R VSB 1   WCI  30
TELLURIDE      CLOUDY    36  26  67 CALM      29.80S
WOLF CREEK PAS SNOW      21  21 100 S15G22    29.91S VSB<1/4 WCI   8
$$

COZ009-010-012-014-032>034-037-058>063-191700-
...CENTRAL COLORADO...

CITY           SKY/WX    TMP DP  RH WIND       PRES   REMARKS
ASPEN          PTSUNNY   34  26  72 N5        29.74F WCI  30
BUENA VISTA    NOT AVBL
COPPER MTN     NOT AVBL
BERTHOUD PASS  PTSUNNY   27  18  69 SW10G23   29.88F WCI  17
COTTONWOOD PAS CLOUDY    36  23  60 E3        29.83F
GUNNISON       PTSUNNY   28  21  75 CALM      29.79F
KREMMLING      FAIR      32  28  86 CALM      29.82F
LEADVILLE      FAIR      29  19  66 SW3       29.81S
MONARCH PASS   FAIR      27  19  74 S20G26    29.98S WCI  13
SALIDA         FAIR      46  25  42 SE7       29.86F
SUNLIGHT       NOT AVBL
WILKERSON PASS FAIR      30  19  64 SW9       29.90S WCI  22
$$

COZ069>075-191700-
...SAN LUIS VALLEY/SANGRE DE CRISTO MOUNTAINS...

CITY           SKY/WX    TMP DP  RH WIND       PRES   REMARKS
ALAMOSA        CLOUDY    34  28  79 SW7       29.82R WCI  28
LA VETA PASS   FAIR      34  23  64 NE8G17    29.87S WCI  27
SAGUACHE       FAIR      37  27  65 CALM      29.82F
$$

COZ035-036-038>040-191700-
...NORTHERN COLORADO FRONT RANGE...

CITY           SKY/WX    TMP DP  RH WIND       PRES   REMARKS
DENVER INTL AP PTSUNNY   48  24  39 E3        29.70F
DMNS CITY PARK   N/A     47  24  41 W3        29.71S
AURORA         PTSUNNY   50  25  37 CALM      29.71S
FRONT RANGE AP PTSUNNY   50  27  40 CALM      29.79R
ERIE MUNI ARPT FAIR      44  28  53 S5        29.71F
BOULDER MUN AP FAIR      43  27  52 CALM      29.70F
CENTENNIAL     PTSUNNY   54  23  30 SE9       29.71S
BROOMFIELD     PTSUNNY   46  25  42 CALM      29.72F
FORT COLLINS   FAIR      44  26  49 SW7       29.70S
LONGMONT       FAIR      42  30  62 CALM      29.72F
$$

COZ041-046-047-076>085-087-088-191700-
...PIKES PEAK/PALMER DIVIDE AND SOUTHERN FOOTHILLS...

CITY           SKY/WX    TMP DP  RH WIND       PRES   REMARKS
COLO. SPRINGS  FAIR      50  25  37 CALM      29.76F
A. F. ACADEMY  FAIR      45  25  44 CALM      29.75F
SCHRIEVER AFB  FAIR      51  23  34 SE12      29.76S
ELLICOTT       FAIR     N/A N/A N/A S15       29.74F
FALCON         NOT AVBL
FORT CARSON    FAIR      49  25  39 N7        29.73F
LIMON          FAIR      48  30  49 S9        29.74F
MONUMENT HILL  FAIR      46  27  46 SW7       29.77F
TRINIDAD       FAIR      52  29  41 W6        29.75F
$$

COZ042>045-048>051-090-091-191700-
...NORTHEAST COLORADO...

CITY           SKY/WX    TMP DP  RH WIND       PRES   REMARKS
GREELEY ARPT   FAIR      37  26  64 CALM      29.71S
AKRON          FAIR      48  27  44 W12       29.69S
BURLINGTON     FAIR      57  35  43 S21G29    29.73R
WRAY           NOT AVBL
STERLING       FAIR      39  28  65 CALM      29.68F
HOLYOKE        FAIR      45  32  61 CALM      29.71S
FORT MORGAN    FAIR      45  26  47 CALM      29.70F
$$

COZ086-089-092>099-191700-
...SOUTHEAST COLORADO...

CITY           SKY/WX    TMP DP  RH WIND       PRES   REMARKS
PUEBLO         FAIR      44  27  51 CALM      29.73R
LA JUNTA       FAIR      57  32  38 S7        29.73F
LAMAR          FAIR      52  36  54 SE10      29.76R
SPRINGFIELD      N/A     52  37  56 S16       29.77F
$$




USA.gov is the U.S. government's official web portal to all federal, state and local government web resources and services.